This is the latest recevied weather packets stored in our database for station/object K7SPS-10. If no packets are shown the sender has not sent any weather packets the latest 10 day(s).
| Time | Temp. | Humidity | Pressure | Rain* | Wind** | Luminosity | Snow |
|---|---|---|---|---|---|---|---|
| 1777551718 | 3.89° C | 85% | 1021.5 hPa | 0 mm | - | 0 W/m² | - |
| 1777551415 | 3.89° C | 84% | 1021.5 hPa | 0 mm | - | 0 W/m² | - |
| 1777551111 | 3.89° C | 84% | 1021.6 hPa | 0 mm | - | 0 W/m² | - |
| 1777550809 | 3.89° C | 83% | 1021.4 hPa | 0 mm | - | 0 W/m² | - |
| 1777550505 | 3.89° C | 83% | 1021.5 hPa | 0 mm | - | 0 W/m² | - |
| 1777550201 | 4.44° C | 81% | 1021.7 hPa | 0 mm | - | 0 W/m² | - |
| 1777549898 | 4.44° C | 81% | 1021.7 hPa | 0 mm | - | 0 W/m² | - |
| 1777549594 | 5° C | 81% | 1021.6 hPa | 0 mm | - | 0 W/m² | - |
| 1777549290 | 5° C | 80% | 1021.8 hPa | 0 mm | - | 0 W/m² | - |
| 1777548987 | 5.56° C | 80% | 1021.7 hPa | 0 mm | - | 0 W/m² | - |
| 1777548684 | 5.56° C | 78% | 1021.8 hPa | 0 mm | - | 0 W/m² | - |
| 1777548381 | 6.11° C | 74% | 1021.6 hPa | 0 mm | - | 0 W/m² | - |
| 1777548078 | 6.11° C | 73% | 1021.6 hPa | 0 mm | - | 0 W/m² | - |
| 1777547774 | 6.11° C | 75% | 1021.5 hPa | 0 mm | - | 0 W/m² | - |
| 1777547470 | 5.56° C | 76% | 1021.4 hPa | 0 mm | - | 0 W/m² | - |
| 1777547168 | 6.11° C | 74% | 1021.5 hPa | 0 mm | - | 0 W/m² | - |
| 1777546865 | 6.11° C | 74% | 1021.6 hPa | 0 mm | - | 0 W/m² | - |
| 1777546561 | 6.11° C | 74% | 1021.3 hPa | 0 mm | - | 0 W/m² | - |
| 1777546258 | 6.67° C | 72% | 1021.3 hPa | 0 mm | - | 0 W/m² | - |
| 1777545955 | 7.22° C | 70% | 1021.1 hPa | 0 mm | - | 0 W/m² | - |
| 1777545651 | 6.11° C | 74% | 1021.1 hPa | 0 mm | - | 0 W/m² | - |
| 1777545349 | 6.11° C | 74% | 1021 hPa | 0 mm | - | 0 W/m² | - |
| 1777545046 | 6.11° C | 74% | 1021.1 hPa | 0 mm | - | 0 W/m² | - |
| 1777544743 | 6.67° C | 72% | 1021 hPa | 0 mm | - | 0 W/m² | - |
| 1777544438 | 6.67° C | 72% | 1021 hPa | 0 mm | - | 0 W/m² | - |
* Rain latest hour (hover to see other rain measurements)
** Current wind speed in m/s (hover to see current wind gust speed)